Year,Month,Day,Hour,Minute,Value (Times are PST for temperature in C)
2015,04,21,00,00,11.20
2015,04,21,00,01,11.10
2015,04,21,00,02,11.10
2015,04,21,00,03,11.10
2015,04,21,00,04,11.10
2015,04,21,00,05,11.00
2015,04,21,00,06,11.00
2015,04,21,00,07,11.00
2015,04,21,00,08,11.00
2015,04,21,00,09,11.00
2015,04,21,00,10,10.90
2015,04,21,00,11,10.90
2015,04,21,00,12,10.90
2015,04,21,00,13,10.90
2015,04,21,00,14,10.90
2015,04,21,00,15,10.90
2015,04,21,00,16,10.90
2015,04,21,00,17,10.90
2015,04,21,00,18,10.90
2015,04,21,00,19,10.90
2015,04,21,00,20,10.90
2015,04,21,00,21,10.90
2015,04,21,00,22,10.90
2015,04,21,00,23,10.90
2015,04,21,00,24,10.80
2015,04,21,00,25,10.80
2015,04,21,00,26,10.80
2015,04,21,00,27,10.80
2015,04,21,00,28,10.80
2015,04,21,00,29,10.80
2015,04,21,00,30,10.80
2015,04,21,00,31,10.80
2015,04,21,00,32,10.90
2015,04,21,00,33,10.90
2015,04,21,00,34,10.90
2015,04,21,00,35,10.90
2015,04,21,00,36,11.00
2015,04,21,00,37,11.00
2015,04,21,00,38,11.00
2015,04,21,00,39,11.10
2015,04,21,00,40,11.10
2015,04,21,00,41,11.10
2015,04,21,00,42,11.10
2015,04,21,00,43,11.10
2015,04,21,00,44,11.10
2015,04,21,00,45,11.10
2015,04,21,00,46,11.10
2015,04,21,00,47,11.10
2015,04,21,00,48,11.10
2015,04,21,00,49,11.10
2015,04,21,00,50,11.10
2015,04,21,00,51,11.10
2015,04,21,00,52,11.10
2015,04,21,00,53,11.10
2015,04,21,00,54,11.10
2015,04,21,00,55,11.10
2015,04,21,00,56,11.00
2015,04,21,00,57,11.00
2015,04,21,00,58,11.00
2015,04,21,00,59,11.00
2015,04,21,01,00,11.00
2015,04,21,01,01,11.00
2015,04,21,01,02,11.00
2015,04,21,01,03,11.00
2015,04,21,01,04,11.10
2015,04,21,01,05,11.10
2015,04,21,01,06,11.10
2015,04,21,01,07,11.10
2015,04,21,01,08,11.10
2015,04,21,01,09,11.10
2015,04,21,01,10,11.10
2015,04,21,01,11,11.10
2015,04,21,01,12,11.10
2015,04,21,01,13,11.10
2015,04,21,01,14,11.20
2015,04,21,01,15,11.20
2015,04,21,01,16,11.30
2015,04,21,01,17,11.30
2015,04,21,01,18,11.30
2015,04,21,01,19,11.30
2015,04,21,01,20,11.30
2015,04,21,01,21,11.30
2015,04,21,01,22,11.30
2015,04,21,01,23,11.20
2015,04,21,01,24,11.20
2015,04,21,01,25,11.10
2015,04,21,01,26,11.00
2015,04,21,01,27,11.00
2015,04,21,01,28,10.90
2015,04,21,01,29,10.90
2015,04,21,01,30,10.80
2015,04,21,01,31,10.80
2015,04,21,01,32,10.70
2015,04,21,01,33,10.70
2015,04,21,01,34,10.60
2015,04,21,01,35,10.60
2015,04,21,01,36,10.50
2015,04,21,01,37,10.50
2015,04,21,01,38,10.50
2015,04,21,01,39,10.40
2015,04,21,01,40,10.40
2015,04,21,01,41,10.40
2015,04,21,01,42,10.30
2015,04,21,01,43,10.30
2015,04,21,01,44,10.30
2015,04,21,01,45,10.20
2015,04,21,01,46,10.20
2015,04,21,01,47,10.20
2015,04,21,01,48,10.20
2015,04,21,01,49,10.10
2015,04,21,01,50,10.10
2015,04,21,01,51,10.10
2015,04,21,01,52,10.10
2015,04,21,01,53,10.10
2015,04,21,01,54,10.00
2015,04,21,01,55,10.00
2015,04,21,01,56,10.00
2015,04,21,01,57,10.00
2015,04,21,01,58,9.90
2015,04,21,01,59,9.90
2015,04,21,02,00,9.90
2015,04,21,02,01,9.90
2015,04,21,02,02,9.90
2015,04,21,02,03,9.90
2015,04,21,02,04,9.90
2015,04,21,02,05,9.90
2015,04,21,02,06,9.90
2015,04,21,02,07,9.90
2015,04,21,02,08,9.80
2015,04,21,02,09,9.80
2015,04,21,02,10,9.80
2015,04,21,02,11,9.80
2015,04,21,02,12,9.80
2015,04,21,02,13,9.80
2015,04,21,02,14,9.80
2015,04,21,02,15,9.80
2015,04,21,02,16,9.80
2015,04,21,02,17,9.80
2015,04,21,02,18,9.70
2015,04,21,02,19,9.70
2015,04,21,02,20,9.70
2015,04,21,02,21,9.70
2015,04,21,02,22,9.70
2015,04,21,02,23,9.70
2015,04,21,02,24,9.70
2015,04,21,02,25,9.70
2015,04,21,02,26,9.70
2015,04,21,02,27,9.60
2015,04,21,02,28,9.60
2015,04,21,02,29,9.60
2015,04,21,02,30,9.60
2015,04,21,02,31,9.60
2015,04,21,02,32,9.60
2015,04,21,02,33,9.60
2015,04,21,02,34,9.60
2015,04,21,02,35,9.60
2015,04,21,02,36,9.50
2015,04,21,02,37,9.50
2015,04,21,02,38,9.50
2015,04,21,02,39,9.40
2015,04,21,02,40,9.40
2015,04,21,02,41,9.40
2015,04,21,02,42,9.40
2015,04,21,02,43,9.40
2015,04,21,02,44,9.40
2015,04,21,02,45,9.40
2015,04,21,02,46,9.30
2015,04,21,02,47,9.30
2015,04,21,02,48,9.30
2015,04,21,02,49,9.30
2015,04,21,02,50,9.30
2015,04,21,02,51,9.30
2015,04,21,02,52,9.30
2015,04,21,02,53,9.30
2015,04,21,02,54,9.30
2015,04,21,02,55,9.40
2015,04,21,02,56,9.40
2015,04,21,02,57,9.50
2015,04,21,02,58,9.60
2015,04,21,02,59,9.70
2015,04,21,03,00,9.80
2015,04,21,03,01,9.90
2015,04,21,03,02,10.00
2015,04,21,03,03,10.10
2015,04,21,03,04,10.20
2015,04,21,03,05,10.30
2015,04,21,03,06,10.40
2015,04,21,03,07,10.40
2015,04,21,03,08,10.50
2015,04,21,03,09,10.50
2015,04,21,03,10,10.60
2015,04,21,03,11,10.70
2015,04,21,03,12,10.70
2015,04,21,03,13,10.80
2015,04,21,03,14,10.90
2015,04,21,03,15,10.90
2015,04,21,03,16,11.00
2015,04,21,03,17,11.00
2015,04,21,03,18,11.10
2015,04,21,03,19,11.10
2015,04,21,03,20,11.10
2015,04,21,03,21,11.20
2015,04,21,03,22,11.20
2015,04,21,03,23,11.20
2015,04,21,03,24,11.20
2015,04,21,03,25,11.10
2015,04,21,03,26,11.10
2015,04,21,03,27,11.00
2015,04,21,03,28,11.00
2015,04,21,03,29,10.80
2015,04,21,03,30,10.70
2015,04,21,03,31,10.70
2015,04,21,03,32,10.60
2015,04,21,03,33,10.50
2015,04,21,03,34,10.40
2015,04,21,03,35,10.30
2015,04,21,03,36,10.30
2015,04,21,03,37,10.20
2015,04,21,03,38,10.20
2015,04,21,03,39,10.10
2015,04,21,03,40,10.10
2015,04,21,03,41,10.10
2015,04,21,03,42,10.00
2015,04,21,03,43,10.00
2015,04,21,03,44,10.00
2015,04,21,03,45,10.00
2015,04,21,03,46,9.90
2015,04,21,03,47,9.90
2015,04,21,03,48,9.90
2015,04,21,03,49,9.90
2015,04,21,03,50,9.80
2015,04,21,03,51,9.80
2015,04,21,03,52,9.80
2015,04,21,03,53,9.80
2015,04,21,03,54,9.70
2015,04,21,03,55,9.70
2015,04,21,03,56,9.60
2015,04,21,03,57,9.60
2015,04,21,03,58,9.60
2015,04,21,03,59,9.60
2015,04,21,04,00,9.50
2015,04,21,04,01,9.50
2015,04,21,04,02,9.50
2015,04,21,04,03,9.40
2015,04,21,04,04,9.40
2015,04,21,04,05,9.40
2015,04,21,04,06,9.40
2015,04,21,04,07,9.40
2015,04,21,04,08,9.40
2015,04,21,04,09,9.40
2015,04,21,04,10,9.30
2015,04,21,04,11,9.30
2015,04,21,04,12,9.30
2015,04,21,04,13,9.30
2015,04,21,04,14,9.30
2015,04,21,04,15,9.30
2015,04,21,04,16,9.30
2015,04,21,04,17,9.30
2015,04,21,04,18,9.30
2015,04,21,04,19,9.30
2015,04,21,04,20,9.30
2015,04,21,04,21,9.30
2015,04,21,04,22,9.30
2015,04,21,04,23,9.20
2015,04,21,04,24,9.20
2015,04,21,04,25,9.20
2015,04,21,04,26,9.20
2015,04,21,04,27,9.20
2015,04,21,04,28,9.20
2015,04,21,04,29,9.20
2015,04,21,04,30,9.20
2015,04,21,04,31,9.20
2015,04,21,04,32,9.20
2015,04,21,04,33,9.20
2015,04,21,04,34,9.20
2015,04,21,04,35,9.20
2015,04,21,04,36,9.10
2015,04,21,04,37,9.10
2015,04,21,04,38,9.10
2015,04,21,04,39,9.10
2015,04,21,04,40,9.10
2015,04,21,04,41,9.10
2015,04,21,04,42,9.10
2015,04,21,04,43,9.10
2015,04,21,04,44,9.10
2015,04,21,04,45,9.10
2015,04,21,04,46,9.10
2015,04,21,04,47,9.10
2015,04,21,04,48,9.10
2015,04,21,04,49,9.10
2015,04,21,04,50,9.10
2015,04,21,04,51,9.10
2015,04,21,04,52,9.10
2015,04,21,04,53,9.20
2015,04,21,04,54,9.30
2015,04,21,04,55,9.30
2015,04,21,04,56,9.40
2015,04,21,04,57,9.40
2015,04,21,04,58,9.40
2015,04,21,04,59,9.40
2015,04,21,05,00,9.50
2015,04,21,05,01,9.50
2015,04,21,05,02,9.60
2015,04,21,05,03,9.70
2015,04,21,05,04,9.80
2015,04,21,05,05,9.80
2015,04,21,05,06,9.90
2015,04,21,05,07,10.00
2015,04,21,05,08,10.00
2015,04,21,05,09,10.10
2015,04,21,05,10,10.10
2015,04,21,05,11,10.20
2015,04,21,05,12,10.20
2015,04,21,05,13,10.20
2015,04,21,05,14,10.20
2015,04,21,05,15,10.20
2015,04,21,05,16,10.20
2015,04,21,05,17,10.20
2015,04,21,05,18,10.20
2015,04,21,05,19,10.30
2015,04,21,05,20,10.30
2015,04,21,05,21,10.30
2015,04,21,05,22,10.20
2015,04,21,05,23,10.20
2015,04,21,05,24,10.20
2015,04,21,05,25,10.20
2015,04,21,05,26,10.20
2015,04,21,05,27,10.20
2015,04,21,05,28,10.20
2015,04,21,05,29,10.10
2015,04,21,05,30,10.10
2015,04,21,05,31,10.10
2015,04,21,05,32,10.10
2015,04,21,05,33,10.10
2015,04,21,05,34,10.10
2015,04,21,05,35,10.10
2015,04,21,05,36,10.10
2015,04,21,05,37,10.10
2015,04,21,05,38,10.10
2015,04,21,05,39,10.10
2015,04,21,05,40,10.10
2015,04,21,05,41,10.10
2015,04,21,05,42,10.10
2015,04,21,05,43,10.10
2015,04,21,05,44,10.10
2015,04,21,05,45,10.00
2015,04,21,05,46,10.00
2015,04,21,05,47,10.00
2015,04,21,05,48,10.00
2015,04,21,05,49,10.00
2015,04,21,05,50,10.00
2015,04,21,05,51,10.00
2015,04,21,05,52,10.00
2015,04,21,05,53,9.90
2015,04,21,05,54,9.90
2015,04,21,05,55,9.90
2015,04,21,05,56,9.90
2015,04,21,05,57,9.90
2015,04,21,05,58,9.90
2015,04,21,05,59,9.90
2015,04,21,06,00,9.90
2015,04,21,06,01,9.80
2015,04,21,06,02,9.80
2015,04,21,06,03,9.80
2015,04,21,06,04,9.80
2015,04,21,06,05,9.80
2015,04,21,06,06,9.80
2015,04,21,06,07,9.80
2015,04,21,06,08,9.80
2015,04,21,06,09,9.80
2015,04,21,06,10,9.70
2015,04,21,06,11,9.70
2015,04,21,06,12,9.70
2015,04,21,06,13,9.70
2015,04,21,06,14,9.60
2015,04,21,06,15,9.60
2015,04,21,06,16,9.60
2015,04,21,06,17,9.60
2015,04,21,06,18,9.60
2015,04,21,06,19,9.60
2015,04,21,06,20,9.60
2015,04,21,06,21,9.50
2015,04,21,06,22,9.50
2015,04,21,06,23,9.50
2015,04,21,06,24,9.50
2015,04,21,06,25,9.50
2015,04,21,06,26,9.50
2015,04,21,06,27,9.40
2015,04,21,06,28,9.50
2015,04,21,06,29,9.50
2015,04,21,06,30,9.50
2015,04,21,06,31,9.40
2015,04,21,06,32,9.40
2015,04,21,06,33,9.40
2015,04,21,06,34,9.40
2015,04,21,06,35,9.40
2015,04,21,06,36,9.50
2015,04,21,06,37,9.40
2015,04,21,06,38,9.50
2015,04,21,06,39,9.50
2015,04,21,06,40,9.50
2015,04,21,06,41,9.60
2015,04,21,06,42,9.60
2015,04,21,06,43,9.60
2015,04,21,06,44,9.60
2015,04,21,06,45,9.60
2015,04,21,06,46,9.70
2015,04,21,06,47,9.70
2015,04,21,06,48,9.70
2015,04,21,06,49,9.80
2015,04,21,06,50,9.80
2015,04,21,06,51,9.80
2015,04,21,06,52,9.90
2015,04,21,06,53,9.90
2015,04,21,06,54,9.90
2015,04,21,06,55,10.00
2015,04,21,06,56,10.00
2015,04,21,06,57,10.10
2015,04,21,06,58,10.10
2015,04,21,06,59,10.10
2015,04,21,07,00,10.20
2015,04,21,07,01,10.20
2015,04,21,07,02,10.20
2015,04,21,07,03,10.20
2015,04,21,07,04,10.30
2015,04,21,07,05,10.30
2015,04,21,07,06,10.30
2015,04,21,07,07,10.30
2015,04,21,07,08,10.30
2015,04,21,07,09,10.40
2015,04,21,07,10,10.40
2015,04,21,07,11,10.40
2015,04,21,07,12,10.40
2015,04,21,07,13,10.40
2015,04,21,07,14,10.50
2015,04,21,07,15,10.50
2015,04,21,07,16,10.50
2015,04,21,07,17,10.60
2015,04,21,07,18,10.60
2015,04,21,07,19,10.60
2015,04,21,07,20,10.60
2015,04,21,07,21,10.70
2015,04,21,07,22,10.70
2015,04,21,07,23,10.70
2015,04,21,07,24,10.70
2015,04,21,07,25,10.80
2015,04,21,07,26,10.80
2015,04,21,07,27,10.80
2015,04,21,07,28,10.90
2015,04,21,07,29,10.90
2015,04,21,07,30,10.90
2015,04,21,07,31,11.00
2015,04,21,07,32,11.00
2015,04,21,07,33,11.00
2015,04,21,07,34,11.10
2015,04,21,07,35,11.10
2015,04,21,07,36,11.10
2015,04,21,07,37,11.20
2015,04,21,07,38,11.20
2015,04,21,07,39,11.20
2015,04,21,07,40,11.20
2015,04,21,07,41,11.30
2015,04,21,07,42,11.30
2015,04,21,07,43,11.40
2015,04,21,07,44,11.40
2015,04,21,07,45,11.40
2015,04,21,07,46,11.50
2015,04,21,07,47,11.60
2015,04,21,07,48,11.60
2015,04,21,07,49,11.60
2015,04,21,07,50,11.70
2015,04,21,07,51,11.70
2015,04,21,07,52,11.80
2015,04,21,07,53,11.80
2015,04,21,07,54,11.90
2015,04,21,07,55,12.00
2015,04,21,07,56,12.00
2015,04,21,07,57,12.10
2015,04,21,07,58,12.20
2015,04,21,07,59,12.20
2015,04,21,08,00,12.30
2015,04,21,08,01,12.30
2015,04,21,08,02,12.30
2015,04,21,08,03,12.40
2015,04,21,08,04,12.40
2015,04,21,08,05,12.40
2015,04,21,08,06,12.50
2015,04,21,08,07,12.50
2015,04,21,08,08,12.50
2015,04,21,08,09,12.60
2015,04,21,08,10,12.60
2015,04,21,08,11,12.60
2015,04,21,08,12,12.60
2015,04,21,08,13,12.60
2015,04,21,08,14,12.60
2015,04,21,08,15,12.60
2015,04,21,08,16,12.50
2015,04,21,08,17,12.50
2015,04,21,08,18,12.50
2015,04,21,08,19,12.60
2015,04,21,08,20,12.60
2015,04,21,08,21,12.60
2015,04,21,08,22,12.60
2015,04,21,08,23,12.70
2015,04,21,08,24,12.80
2015,04,21,08,25,12.80
2015,04,21,08,26,12.80
2015,04,21,08,27,12.90
2015,04,21,08,28,12.90
2015,04,21,08,29,13.00
2015,04,21,08,30,13.00
2015,04,21,08,31,13.10
2015,04,21,08,32,13.10
2015,04,21,08,33,13.20
2015,04,21,08,34,13.20
2015,04,21,08,35,13.20
2015,04,21,08,36,13.30
2015,04,21,08,37,13.30
2015,04,21,08,38,13.30
2015,04,21,08,39,13.30
2015,04,21,08,40,13.30
2015,04,21,08,41,13.30
2015,04,21,08,42,13.30
2015,04,21,08,43,13.30
2015,04,21,08,44,13.30
2015,04,21,08,45,13.40
2015,04,21,08,46,13.40
2015,04,21,08,47,13.50
2015,04,21,08,48,13.50
2015,04,21,08,49,13.60
2015,04,21,08,50,13.60
2015,04,21,08,51,13.60
2015,04,21,08,52,13.70
2015,04,21,08,53,13.70
2015,04,21,08,54,13.70
2015,04,21,08,55,13.70
2015,04,21,08,56,13.70
2015,04,21,08,57,13.70
2015,04,21,08,58,13.80
2015,04,21,08,59,13.80
2015,04,21,09,00,13.90
2015,04,21,09,01,13.90
2015,04,21,09,02,14.00
2015,04,21,09,03,14.10
2015,04,21,09,04,14.10
2015,04,21,09,05,14.20
2015,04,21,09,06,14.20
2015,04,21,09,07,14.20
2015,04,21,09,08,14.30
2015,04,21,09,09,14.30
2015,04,21,09,10,14.40
2015,04,21,09,11,14.40
2015,04,21,09,12,14.50
2015,04,21,09,13,14.60
2015,04,21,09,14,14.60
2015,04,21,09,15,14.60
2015,04,21,09,16,14.70
2015,04,21,09,17,14.70
2015,04,21,09,18,14.80
2015,04,21,09,19,14.80
2015,04,21,09,20,14.90
2015,04,21,09,21,15.00
2015,04,21,09,22,15.00
2015,04,21,09,23,15.10
2015,04,21,09,24,15.20
2015,04,21,09,25,15.30
2015,04,21,09,26,15.40
2015,04,21,09,27,15.40
2015,04,21,09,28,15.50
2015,04,21,09,29,15.50
2015,04,21,09,30,15.50
2015,04,21,09,31,15.50
2015,04,21,09,32,15.40
2015,04,21,09,33,15.40
2015,04,21,09,34,15.30
2015,04,21,09,35,15.20
2015,04,21,09,36,15.20
2015,04,21,09,37,15.20
2015,04,21,09,38,15.20
2015,04,21,09,39,15.10
2015,04,21,09,40,15.10
2015,04,21,09,41,15.10
2015,04,21,09,42,15.10
2015,04,21,09,43,15.10
2015,04,21,09,44,15.10
2015,04,21,09,45,15.10
2015,04,21,09,46,15.10
2015,04,21,09,47,15.10
2015,04,21,09,48,15.10
2015,04,21,09,49,15.10
2015,04,21,09,50,15.10
2015,04,21,09,51,15.10
2015,04,21,09,52,15.10
2015,04,21,09,53,15.00
2015,04,21,09,54,15.00
2015,04,21,09,55,14.90
2015,04,21,09,56,14.70
2015,04,21,09,57,14.60
2015,04,21,09,58,14.60
2015,04,21,09,59,14.50
2015,04,21,10,00,14.40
2015,04,21,10,01,14.40
2015,04,21,10,02,14.30
2015,04,21,10,03,14.30
2015,04,21,10,04,14.30
2015,04,21,10,05,14.30
2015,04,21,10,06,14.30
2015,04,21,10,07,14.30
2015,04,21,10,08,14.30
2015,04,21,10,09,14.30
2015,04,21,10,10,14.40
2015,04,21,10,11,14.50
2015,04,21,10,12,14.50
2015,04,21,10,13,14.60
2015,04,21,10,14,14.70
2015,04,21,10,15,14.80
2015,04,21,10,16,14.90
2015,04,21,10,17,15.00
2015,04,21,10,18,15.10
2015,04,21,10,19,15.30
2015,04,21,10,20,15.40
2015,04,21,10,21,15.50
2015,04,21,10,22,15.50
2015,04,21,10,23,15.60
2015,04,21,10,24,15.70
2015,04,21,10,25,15.80
2015,04,21,10,26,15.90
2015,04,21,10,27,16.00
2015,04,21,10,28,16.10
2015,04,21,10,29,16.20
2015,04,21,10,30,16.30
2015,04,21,10,31,16.30
2015,04,21,10,32,16.30
2015,04,21,10,33,16.20
2015,04,21,10,34,16.20
2015,04,21,10,35,16.20
2015,04,21,10,36,16.20
2015,04,21,10,37,16.20
2015,04,21,10,38,16.20
2015,04,21,10,39,16.20
2015,04,21,10,40,16.20
2015,04,21,10,41,16.20
2015,04,21,10,42,16.30
2015,04,21,10,43,16.30
2015,04,21,10,44,16.30
2015,04,21,10,45,16.40
2015,04,21,10,46,16.50
2015,04,21,10,47,16.50
2015,04,21,10,48,16.60
2015,04,21,10,49,16.60
2015,04,21,10,50,16.70
2015,04,21,10,51,16.70
2015,04,21,10,52,16.80
2015,04,21,10,53,16.80
2015,04,21,10,54,16.90
2015,04,21,10,55,17.00
2015,04,21,10,56,17.20
2015,04,21,10,57,17.30
2015,04,21,10,58,17.40
2015,04,21,10,59,17.60
2015,04,21,11,00,17.70
2015,04,21,11,01,17.80
2015,04,21,11,02,17.80
2015,04,21,11,03,17.90
2015,04,21,11,04,17.90
2015,04,21,11,05,17.90
2015,04,21,11,06,17.90
2015,04,21,11,07,17.90
2015,04,21,11,08,17.90
2015,04,21,11,09,17.90
2015,04,21,11,10,17.90
2015,04,21,11,11,17.90
2015,04,21,11,12,17.90
2015,04,21,11,13,17.90
2015,04,21,11,14,17.90
2015,04,21,11,15,17.90
2015,04,21,11,16,17.90
2015,04,21,11,17,17.80
2015,04,21,11,18,17.80
2015,04,21,11,19,17.80
2015,04,21,11,20,17.80
2015,04,21,11,21,17.70
2015,04,21,11,22,17.60
2015,04,21,11,23,17.50
2015,04,21,11,24,17.40
2015,04,21,11,25,17.30
2015,04,21,11,26,17.30
2015,04,21,11,27,17.20
2015,04,21,11,28,17.20
2015,04,21,11,29,17.20
2015,04,21,11,30,17.30
2015,04,21,11,31,17.30
2015,04,21,11,32,17.30
2015,04,21,11,33,17.30
2015,04,21,11,34,17.30
2015,04,21,11,35,17.30
2015,04,21,11,36,17.30
2015,04,21,11,37,17.30
2015,04,21,11,38,17.40
2015,04,21,11,39,17.40
2015,04,21,11,40,17.40
2015,04,21,11,41,17.40
2015,04,21,11,42,17.40
2015,04,21,11,43,17.40
2015,04,21,11,44,17.40
2015,04,21,11,45,17.40
2015,04,21,11,46,17.40
2015,04,21,11,47,17.40
2015,04,21,11,48,17.50
2015,04,21,11,49,17.60
2015,04,21,11,50,17.60
2015,04,21,11,51,17.60
2015,04,21,11,52,17.60
2015,04,21,11,53,17.50
2015,04,21,11,54,17.40
2015,04,21,11,55,17.40
2015,04,21,11,56,17.40
2015,04,21,11,57,17.40
2015,04,21,11,58,17.40
2015,04,21,11,59,17.40
2015,04,21,12,00,17.30
2015,04,21,12,01,17.30
2015,04,21,12,02,17.30
2015,04,21,12,03,17.20
2015,04,21,12,04,17.20
2015,04,21,12,05,17.10
2015,04,21,12,06,17.10
2015,04,21,12,07,17.00
2015,04,21,12,08,17.00
2015,04,21,12,09,17.00
2015,04,21,12,10,17.10
2015,04,21,12,11,17.10
2015,04,21,12,12,17.10
2015,04,21,12,13,17.10
2015,04,21,12,14,17.10
2015,04,21,12,15,17.10
2015,04,21,12,16,17.00
2015,04,21,12,17,17.00
2015,04,21,12,18,17.00
2015,04,21,12,19,17.00
2015,04,21,12,20,17.10
2015,04,21,12,21,17.10
2015,04,21,12,22,17.10
2015,04,21,12,23,17.10
2015,04,21,12,24,17.10
2015,04,21,12,25,17.20
2015,04,21,12,26,17.20
2015,04,21,12,27,17.20
2015,04,21,12,28,17.20
2015,04,21,12,29,17.30
2015,04,21,12,30,17.40
2015,04,21,12,31,17.40
2015,04,21,12,32,17.30
2015,04,21,12,33,17.30
2015,04,21,12,34,17.20
2015,04,21,12,35,17.20
2015,04,21,12,36,17.30
2015,04,21,12,37,17.40
2015,04,21,12,38,17.50
2015,04,21,12,39,17.60
2015,04,21,12,40,17.40
2015,04,21,12,41,17.10
2015,04,21,12,42,16.90
2015,04,21,12,43,16.70
2015,04,21,12,44,16.60
2015,04,21,12,45,16.50
2015,04,21,12,46,16.40
2015,04,21,12,47,16.40
2015,04,21,12,48,16.40
2015,04,21,12,49,16.40
2015,04,21,12,50,16.40
2015,04,21,12,51,16.30
2015,04,21,12,52,16.20
2015,04,21,12,53,16.10
2015,04,21,12,54,16.00
2015,04,21,12,55,15.90
2015,04,21,12,56,15.80
2015,04,21,12,57,15.70
2015,04,21,12,58,15.70
2015,04,21,12,59,15.60
2015,04,21,13,00,15.60
2015,04,21,13,01,15.50
2015,04,21,13,02,15.40
2015,04,21,13,03,15.40
2015,04,21,13,04,15.50
2015,04,21,13,05,15.60
2015,04,21,13,06,15.60
2015,04,21,13,07,15.70
2015,04,21,13,08,15.80
2015,04,21,13,09,15.80
2015,04,21,13,10,15.80
2015,04,21,13,11,15.80
2015,04,21,13,12,15.80
2015,04,21,13,13,15.80
2015,04,21,13,14,15.70
2015,04,21,13,15,15.70
2015,04,21,13,16,15.70
2015,04,21,13,17,15.70
2015,04,21,13,18,15.80
2015,04,21,13,19,15.80
2015,04,21,13,20,15.90
2015,04,21,13,21,16.00
2015,04,21,13,22,16.10
2015,04,21,13,23,16.20
2015,04,21,13,24,16.30
2015,04,21,13,25,16.40
2015,04,21,13,26,16.50
2015,04,21,13,27,16.60
2015,04,21,13,28,16.80
2015,04,21,13,29,17.00
2015,04,21,13,30,17.10
2015,04,21,13,31,17.10
2015,04,21,13,32,17.10
2015,04,21,13,33,17.00
2015,04,21,13,34,17.00
2015,04,21,13,35,17.00
2015,04,21,13,36,17.10
2015,04,21,13,37,17.10
2015,04,21,13,38,17.10
2015,04,21,13,39,17.20
2015,04,21,13,40,17.40
2015,04,21,13,41,17.50
2015,04,21,13,42,17.60
2015,04,21,13,43,17.70
2015,04,21,13,44,17.80
2015,04,21,13,45,17.90
2015,04,21,13,46,17.90
2015,04,21,13,47,18.00
2015,04,21,13,48,18.20
2015,04,21,13,49,18.30
2015,04,21,13,50,18.40
2015,04,21,13,51,18.40
2015,04,21,13,52,18.40
2015,04,21,13,53,18.40
2015,04,21,13,54,18.40
2015,04,21,13,55,18.40
2015,04,21,13,56,18.50
2015,04,21,13,57,18.50
2015,04,21,13,58,18.60
2015,04,21,13,59,18.50
2015,04,21,14,00,18.50
2015,04,21,14,01,18.40
2015,04,21,14,02,18.40
2015,04,21,14,03,18.40
2015,04,21,14,04,18.40
2015,04,21,14,05,18.50
2015,04,21,14,06,18.60
2015,04,21,14,07,18.60
2015,04,21,14,08,18.70
2015,04,21,14,09,18.70
2015,04,21,14,10,18.70
2015,04,21,14,11,18.70
2015,04,21,14,12,18.80
2015,04,21,14,13,18.70
2015,04,21,14,14,18.70
2015,04,21,14,15,18.70
2015,04,21,14,16,18.70
2015,04,21,14,17,18.70
2015,04,21,14,18,18.60
2015,04,21,14,19,18.60
2015,04,21,14,20,18.50
2015,04,21,14,21,18.50
2015,04,21,14,22,18.40
2015,04,21,14,23,18.40
2015,04,21,14,24,18.30
2015,04,21,14,25,18.30
2015,04,21,14,26,18.20
2015,04,21,14,27,18.00
2015,04,21,14,28,17.90
2015,04,21,14,29,17.80
2015,04,21,14,30,17.80
2015,04,21,14,31,17.70
2015,04,21,14,32,17.70
2015,04,21,14,33,17.60
2015,04,21,14,34,17.50
2015,04,21,14,35,17.40
2015,04,21,14,36,17.30
2015,04,21,14,37,17.20
2015,04,21,14,38,17.20
2015,04,21,14,39,17.20
2015,04,21,14,40,17.10
2015,04,21,14,41,16.90
2015,04,21,14,42,16.70
2015,04,21,14,43,16.50
2015,04,21,14,44,16.40
2015,04,21,14,45,16.30
2015,04,21,14,46,16.30
2015,04,21,14,47,16.20
2015,04,21,14,48,16.20
2015,04,21,14,49,16.00
2015,04,21,14,50,15.90
2015,04,21,14,51,15.80
2015,04,21,14,52,15.70
2015,04,21,14,53,15.60
2015,04,21,14,54,15.60
2015,04,21,14,55,15.50
2015,04,21,14,56,15.40
2015,04,21,14,57,15.30
2015,04,21,14,58,15.30
2015,04,21,14,59,15.20
2015,04,21,15,00,15.10
2015,04,21,15,01,15.10
2015,04,21,15,02,15.20
2015,04,21,15,03,15.20
2015,04,21,15,04,15.20
2015,04,21,15,05,15.30
2015,04,21,15,06,15.30
2015,04,21,15,07,15.30
2015,04,21,15,08,15.30
2015,04,21,15,09,15.30
2015,04,21,15,10,15.30
2015,04,21,15,11,15.20
2015,04,21,15,12,15.00
2015,04,21,15,13,14.90
2015,04,21,15,14,14.80
2015,04,21,15,15,14.70
2015,04,21,15,16,14.70
2015,04,21,15,17,14.60
2015,04,21,15,18,14.50
2015,04,21,15,19,14.50
2015,04,21,15,20,14.50
2015,04,21,15,21,14.40
2015,04,21,15,22,14.40
2015,04,21,15,23,14.30
2015,04,21,15,24,14.30
2015,04,21,15,25,14.30
2015,04,21,15,26,14.20
2015,04,21,15,27,14.20
2015,04,21,15,28,14.20
2015,04,21,15,29,14.20
2015,04,21,15,30,14.10
2015,04,21,15,31,14.10
2015,04,21,15,32,14.00
2015,04,21,15,33,14.00
2015,04,21,15,34,13.90
2015,04,21,15,35,13.90
2015,04,21,15,36,13.80
2015,04,21,15,37,13.80
2015,04,21,15,38,13.80
2015,04,21,15,39,13.70
2015,04,21,15,40,13.70
2015,04,21,15,41,13.70
2015,04,21,15,42,13.60
2015,04,21,15,43,13.60
2015,04,21,15,44,13.60
2015,04,21,15,45,13.50
2015,04,21,15,46,13.50
2015,04,21,15,47,13.50
2015,04,21,15,48,13.40
2015,04,21,15,49,13.40
2015,04,21,15,50,13.40
2015,04,21,15,51,13.40
2015,04,21,15,52,13.30
2015,04,21,15,53,13.30
2015,04,21,15,54,13.30
2015,04,21,15,55,13.20
2015,04,21,15,56,13.20
2015,04,21,15,57,13.20
2015,04,21,15,58,13.20
2015,04,21,15,59,13.10
2015,04,21,16,00,13.10
2015,04,21,16,01,13.10
2015,04,21,16,02,13.10
2015,04,21,16,03,13.10
2015,04,21,16,04,13.00
2015,04,21,16,05,13.00
2015,04,21,16,06,13.00
2015,04,21,16,07,13.00
2015,04,21,16,08,13.00
2015,04,21,16,09,13.00
2015,04,21,16,10,12.90
2015,04,21,16,11,12.90
2015,04,21,16,12,12.80
2015,04,21,16,13,12.80
2015,04,21,16,14,12.80
2015,04,21,16,15,12.80
2015,04,21,16,16,12.80
2015,04,21,16,17,12.70
2015,04,21,16,18,12.70
2015,04,21,16,19,12.70
2015,04,21,16,20,12.60
2015,04,21,16,21,12.60
2015,04,21,16,22,12.50
2015,04,21,16,23,12.50
2015,04,21,16,24,12.40
2015,04,21,16,25,12.40
2015,04,21,16,26,12.30
2015,04,21,16,27,12.30
2015,04,21,16,28,12.30
2015,04,21,16,29,12.30
2015,04,21,16,30,12.20
2015,04,21,16,31,12.20
2015,04,21,16,32,12.20
2015,04,21,16,33,12.20
2015,04,21,16,34,12.10
2015,04,21,16,35,12.10
2015,04,21,16,36,12.10
2015,04,21,16,37,12.00
2015,04,21,16,38,12.00
2015,04,21,16,39,11.90
2015,04,21,16,40,11.90
2015,04,21,16,41,11.90
2015,04,21,16,42,11.90
2015,04,21,16,43,11.80
2015,04,21,16,44,11.80
2015,04,21,16,45,11.80
2015,04,21,16,46,11.80
2015,04,21,16,47,11.80
2015,04,21,16,48,11.70
2015,04,21,16,49,11.70
2015,04,21,16,50,11.70
2015,04,21,16,51,11.70
2015,04,21,16,52,11.60
2015,04,21,16,53,11.60
2015,04,21,16,54,11.60
2015,04,21,16,55,11.60
2015,04,21,16,56,11.60
2015,04,21,16,57,11.60
2015,04,21,16,58,11.50
2015,04,21,16,59,11.50
2015,04,21,17,00,11.50
2015,04,21,17,01,11.40
2015,04,21,17,02,11.40
2015,04,21,17,03,11.40
2015,04,21,17,04,11.40
2015,04,21,17,05,11.40
2015,04,21,17,06,11.40
2015,04,21,17,07,11.30
2015,04,21,17,08,11.30
2015,04,21,17,09,11.30
2015,04,21,17,10,11.30
2015,04,21,17,11,11.30
2015,04,21,17,12,11.30
2015,04,21,17,13,11.30
2015,04,21,17,14,11.30
2015,04,21,17,15,11.30
2015,04,21,17,16,11.30
2015,04,21,17,17,11.30
2015,04,21,17,18,11.30
2015,04,21,17,19,11.30
2015,04,21,17,20,11.30
2015,04,21,17,21,11.30
2015,04,21,17,22,11.30
2015,04,21,17,23,11.30
2015,04,21,17,24,11.30
2015,04,21,17,25,11.30
2015,04,21,17,26,11.30
2015,04,21,17,27,11.30
2015,04,21,17,28,11.40